Find Starlink 31593

NORAD ID: 59350 Int'l Des: 2024-060 Owner: SPXS Country: US Constellation: starlink operational
LEOCIRCULAR

Live Position

Loading 3D Globe...

About Starlink 31593

Description loading...

Upcoming Passes

Passes for default location (London). Set your location on the main map for personalized predictions.

Altitude History

Loading altitude history...

Two-Line Element Set

1 59350U 24060C 26126.79416782 .00000333 00000-0 21637-4 0 9997
2 59350 43.0030 291.3314 0001083 275.7346 84.3382 15.27575613118957
Epoch: May 6, 2026 • Age: 10 hours

Current Status

Altitude 485.4 km
Velocity 7.63 km/s
Sub-Earth Point 35.93°N, 118.3°E
Launch Date Mar 31, 2024
Age 2 years
Type internet

Technical Details

Classification Payload
Mass 730.00 kg
Dry Mass 700.00 kg
Total Mass 730.00 kg
Length 0.30 m
Diameter 4.10 m
Span 29.00 m
Shape Box + pan
Manufacturer SPXS
Bus Type Starlink V2M
Phase Status In Orbit
Owner/State SPXS/US

Most Searched